Regional Weather Roundup
Issued by NWS Albany, NY

Current Version | Previous Version | Text Only | Print | Product List | Glossary On
Versions: 1 2 3 4 5 6 7 8 9 10 11 12 13 14 15 16 17 18 19 20 21 22 23 24 25 26 27 28
000
ASUS41 KALY 130810
RWRALY

NEW YORK STATE HOURLY WEATHER ROUNDUP
NATIONAL WEATHER SERVICE ALBANY NY
300 AM EST WED DEC 13 2017

NOTE: "FAIR" INDICATES FEW OR NO CLOUDS BELOW 12,000 FEET WITH NO
SIGNIFICANT WEATHER AND/OR NO OBSTRUCTIONS TO VISIBILITY.

NYZ032-033-038>043-046>054-057>066-NYZ062>081-082-084-130900-
EAST


CITY           SKY/WX    TMP DP  RH WIND       PRES   REMARKS
ALBANY         CLOUDY    19   4  51 W12G22    29.45F WCI   7
GLENS FALLS    CLOUDY    19  11  70 W8        29.39R WCI   9
POUGHKEEPSIE   CLEAR     20   5  52 W10       29.48S WCI   9
NEWBURGH       PTCLDY    19   9  63 W12G23    29.49R WCI   7
MONTGOMERY     PTCLDY    19   4  51 W15G24    29.48S WCI   5
WHITE PLAINS   PTCLDY    21   5  50 W14G26    29.45F WCI   8
ISLIP          MOCLDY    25   9  50 NW18G29   29.44S WCI  11
NEW YORK CITY  PTCLDY    25   5  42 W25G33    29.52R WCI   9
CENTRAL PARK   PTCLDY    23   3  42 W10G17    29.54R WCI  12
$$

NYZ005>009-017-018-044>046-055-056-130900-
CENTRAL


CITY           SKY/WX    TMP DP  RH WIND       PRES   REMARKS
FULTON         LGT SNOW  16  13  88 SW14      29.48R FOG     WCI   2
SYRACUSE       LGT SNOW  14  13  95 W17G30    29.49R VSB 3/4 WCI  -3
ROME           LGT SNOW  15   9  76 W7        29.48R WCI   5
ELMIRA         CLOUDY    16   4  59 W18G30    29.54R WCI   0
BINGHAMTON     CLOUDY    11   1  64 W18G29    29.43S WCI  -7
$$

NYZ026>034-041>043-087-130900-
NORTH


CITY           SKY/WX    TMP DP  RH WIND       PRES   REMARKS
WATERTOWN      LGT SNOW  14  11  87 NW10      29.47R FOG     WCI   1
FORT DRUM      NOT AVBL
OGDENSBURG     LGT SNOW  13  10  88 W9        29.45R WCI   1
MASSENA        CLOUDY    14  11  87 W10       29.43F WCI   1
SARANAC LAKE   CLOUDY    13  10  88 SW9       29.27F WCI   1
PLATTSBURGH    CLOUDY    22  13  68 VRB5      29.35R WCI  16
$$

NYZ001>004-010>016-019>021-085-130900-
WEST


CITY           SKY/WX    TMP DP  RH WIND       PRES   REMARKS
NIAGARA FALLS  LGT SNOW  17   7  64 NW20G26   29.63R WCI   1
BUFFALO        FLURRIES  14   8  77 W13       29.62R WCI   0
DUNKIRK        LGT SNOW  17   8  67 NW22G31   29.69R WCI   0
JAMESTOWN      LGT SNOW  12   9  85 NW24G36   29.58R VSB 3/4 WCI  -8
WELLSVILLE     MIX PCPN  12   3  67 W22G30    29.49R WCI  -7
ROCHESTER      LGT SNOW  15  11  83 W14       29.56R BLWGSNOWWCI   0
PENN YAN       CLOUDY    15   3  59 W12G25    29.52R WCI   2
$$

             KEY
       WCI = WIND CHILL INDEX
       VSB = VISIBILITY
       HX  = HEAT INDEX
$$




USA.gov is the U.S. government's official web portal to all federal, state and local government web resources and services.